[[{"header":{"parameterUnit":"m.s-1","parameterCategory":1,"la1":30.2991,"la2":30.254,"lo1":-89.0895,"lo2":-89.0444,"dx":0.0017,"dy":0.0017,"nx":28,"ny":28,"refTime":"2022-11-19T09:00:00:Z","depth":0,"parameterNumber":2,"parameterNumberName":"U-component_of_WINDS"},"data":[0,0,0,0,0,0,0,0,0,0,0,0,0,0,0,0,0,0,0,0,0,0,0,0,0,0,0,0,0,0,0,0,0,0,0,0,0,0,0,0,0,0,0,0,0,0,0,0,0,0,0,0,0,0,0,0,0,0,-4.3498,-4.3499,0,-4.3577,-4.3578,-4.3579,-4.3432,-4.3427,-4.3422,-4.3418,-4.35,-4.3507,-4.3513,0,0,0,0,0,0,0,0,0,0,0,0,0,-4.322,-4.3226,-4.3498,-4.3499,-4.35,-4.3577,-4.3578,-4.3579,-4.3433,-4.3427,-4.3421,-4.3415,-4.3498,-4.3506,-4.3514,0,0,0,0,0,0,0,0,0,0,0,0,0,-4.3324,-4.3228,-4.3498,-4.3436,-4.3432,-4.3577,-4.3578,-4.358,-4.3434,-4.3427,-4.3419,-4.3413,-4.3495,-4.3505,-4.3515,-4.3725,0,0,-4.3546,-4.355,0,0,0,0,0,0,0,0,-4.3318,-4.3335,-4.3444,-4.3441,-4.3436,-4.3487,-4.351,-4.3628,-4.3436,-4.3433,-4.3418,-4.3409,-4.3502,-4.3511,-4.3542,-4.3728,-4.3732,-4.3547,-4.3553,-4.3557,-4.356,0,0,0,0,0,0,0,-4.3311,-4.333,-4.3529,-4.3446,-4.3441,-4.3404,-4.3411,-4.3532,-4.3508,-4.3433,-4.3422,-4.3434,-4.3498,-4.3533,-4.3543,-4.3733,-4.3547,-4.3556,-4.3562,-4.3566,-4.4093,-4.4101,0,0,0,0,0,0,-4.3312,-4.3325,-4.3527,-4.3532,-4.3358,-4.3416,-4.3423,-4.3478,-4.3506,-4.3503,-4.344,-4.3427,-4.3519,-4.3531,-4.3545,-4.3792,-4.3557,-4.3567,-4.3573,-4.4086,-4.4095,-4.4104,0,0,0,0,0,0,-4.3306,-4.3331,-4.3524,-4.3426,-4.3447,-4.3428,-4.3491,-4.3484,-4.3518,-4.3511,-4.3506,-4.348,-4.3514,-4.3531,-4.368,-4.3792,-4.3571,-4.3581,-4.4076,-4.4089,-4.41,-4.4287,0,0,0,0,0,0,-4.3299,-4.333,-4.341,-4.3429,-4.3453,-4.3659,-4.3498,-4.349,-4.3536,-4.3519,-4.3547,-4.3545,-4.3509,-4.3666,-4.3691,-4.3802,-4.3589,-4.4066,-4.4082,-4.4096,-4.4271,-4.4304,-4.4332,0,0,0,0,0,-4.329,-4.346,-4.3415,-4.344,-4.3553,-4.3665,-4.3679,-4.3634,-4.3545,-4.3625,-4.362,-4.3544,-4.3776,-4.3683,-4.3709,-4.3826,-4.4059,-4.4077,-4.4095,-4.4257,-4.4297,-4.4331,0,0,0,0,0,0,-4.3456,-4.3462,-4.3411,-4.3593,-4.363,-4.364,-4.374,-4.3679,-4.3742,-4.3724,-4.3665,-4.3673,-4.3834,-4.3844,-4.3741,-4.4029,-4.3902,-4.3926,-4.4017,-4.4055,-4.4085,-4.408,-4.3597,0,0,0,0,0,-4.3514,-4.3605,-4.3604,-4.3765,-4.3786,-4.376,-4.3808,-4.3769,-4.3805,-4.382,-4.3827,-4.3865,-4.3945,-4.4,-4.4075,-4.4271,-4.4274,-4.4363,-4.4394,-4.4419,-4.4441,-4.4544,-4.4584,-4.4162,-4.4162,-4.4162,0,0,-4.3634,-4.3648,-4.371,-4.3799,-4.3823,-4.3918,-4.3774,-4.3882,-4.3952,-4.3837,-4.3978,-4.3984,-4.4022,-4.4196,-4.4273,-4.4209,-4.4558,-4.4442,-4.4462,-4.447,-4.4567,-4.4607,-4.4642,-4.4175,-4.4172,-4.417,0,0,-4.3903,-4.3923,-4.4058,-4.4085,-4.4122,-4.4104,-4.4136,-4.4156,-4.4155,-4.4296,-4.4211,-4.4293,-4.4435,-4.4465,-4.4499,-4.4777,-4.4709,-4.4803,-4.4964,-4.5065,-4.5098,-4.5128,-4.5227,-4.5263,-4.4824,-4.4825,-4.4825,0,-4.4048,-4.4189,-4.4135,-4.4249,-4.429,-4.4188,-4.4325,-4.4353,-4.4414,-4.4445,-4.4372,-4.4546,-4.4565,-4.4744,-4.4811,-4.4842,-4.4877,-4.48,-4.5098,-4.5127,-4.5153,-4.5247,-4.5284,-4.4836,-4.4835,-4.4833,-4.4832,0,-4.4365,-4.4464,-4.4569,-4.4629,-4.4681,-4.4806,-4.4771,-4.4831,-4.4788,-4.4776,-4.4921,-4.4939,-4.5015,-4.5054,-4.5013,-4.5227,-4.5186,-4.5107,-4.4979,-4.5205,-4.5293,-4.5328,-4.4852,-4.4848,-4.4845,-4.4842,0,0,-4.4743,-4.4771,-4.481,-4.4836,-4.4869,-4.4944,-4.5063,-4.5136,-4.5189,-4.5233,-4.5331,-4.5452,-4.5378,-4.5417,-4.5378,-4.5467,-4.5686,-4.5377,-4.5376,-4.5434,-4.5922,-4.5982,-4.6025,-4.564,-4.5647,-4.5652,-4.5919,0,-4.501,-4.5215,-4.5169,-4.5371,-4.5461,-4.5365,-4.5468,-4.55,-4.5492,-4.5567,-4.5558,-4.5645,-4.5541,-4.5563,-4.5647,-4.5642,-4.5783,-4.5622,-4.5731,-4.5736,-4.5726,-4.607,-4.6135,-4.6386,-4.5953,-4.5958,-4.5963,0,-4.5349,-4.5405,-4.5617,-4.5633,-4.5669,-4.5764,-4.5826,-4.5899,-4.5932,-4.592,-4.5963,-4.5906,-4.6023,-4.5893,-4.6054,-4.5945,-4.5986,-4.5991,-4.5999,-4.6009,-4.5864,-4.609,-4.6465,-4.6503,-4.6016,-4.6011,-4.6008,0,-4.5604,-4.5733,-4.5875,-4.59,-4.5923,-4.5991,-4.6004,-4.603,-4.6076,-4.6131,-4.616,-4.6229,-4.6266,-4.632,-4.6283,-4.6191,-4.645,-4.6316,-4.6443,-4.6445,-4.6503,-4.65,-4.6891,-4.6529,-4.6529,-4.6528,-4.6527,0,-4.5907,-4.604,-4.5989,-4.6078,-4.6223,-4.6169,-4.6314,-4.6316,-4.6339,-4.6425,-4.6346,-4.6428,-4.6374,-4.6452,-4.6423,-4.6561,-4.6578,-4.6572,-4.6563,-4.6579,-4.658,-4.6607,-4.6589,-4.6538,-4.6536,-4.6534,-4.6532,0,-4.6217,-4.6189,-4.6338,-4.6347,-4.6352,-4.6459,-4.6467,-4.6548,-4.6533,-4.6643,-4.6666,-4.6643,-4.6731,-4.6699,-4.6792,-4.6773,-4.6948,-4.6916,-4.6937,-4.6929,-4.7058,-4.7047,-4.748,-4.7534,-4.7137,-4.7141,-4.7144,0,-4.6413,-4.6513,-4.6532,-4.6584,-4.6603,-4.6687,-4.6733,-4.6683,-4.6735,-4.6779,-4.6855,-4.6935,-4.6997,-4.7141,-4.7133,-4.7203,-4.7173,-4.732,-4.7183,-4.7196,-4.7175,-4.717,-4.718,-4.7348,-4.7352,-4.7356,-4.7359,0,-4.6764,-4.6744,-4.6814,-4.688,-4.6937,-4.6987,-4.7028,-4.7075,-4.7027,-4.7089,-4.7177,-4.7225,-4.7319,-4.74,-4.7463,-4.7475,-4.741,-4.7402,-4.7435,-4.7454,-4.7462,-4.7459,-4.7013,-4.7393,-4.7389,-4.7387,-4.7385,-4.7384,-4.7023,-4.7106,-4.7133,-4.7213,-4.7239,-4.728,-4.7357,-4.7351,-4.7423,-4.7496,-4.7461,-4.7563,-4.7592,-4.7669,-4.7691,-4.777,-4.7713,-4.7761,-4.7773,-4.7786,-4.7803,-4.7449,-4.7781,-4.778,-4.7779,-4.7778,-4.7777,0,-4.7369,-4.7381,-4.7456,-4.7516,-4.758,-4.7511,-4.7553,-4.7611,-4.7701,-4.7733,-4.7795,-4.7895,-4.7973,-4.797,-4.8041,-4.8105,-4.8076,-4.8125,-4.812,-4.8124,-4.785,-4.7814,-4.8147,-4.8147,-4.8147,-4.8146,-4.8146,-4.8146,-4.7557,-4.7695,-4.7679,-4.7828,-4.7838,-4.7937,-4.7967,-4.8004,-4.8029,-4.8145,-4.8208,-4.8205,-4.8223,-4.8295,-4.8363,-4.836,-4.839,-4.845,-4.8436,-4.818,-4.8144,-4.8109,-4.8075,-4.8457,-4.8458,-4.8704,-4.8706,-4.8708]},{"header":{"parameterUnit":"m.s-1","parameterCategory":1,"la1":30.2991,"la2":30.254,"lo1":-89.0895,"lo2":-89.0444,"dx":0.0017,"dy":0.0017,"nx":28,"ny":28,"refTime":"2022-11-19T09:00:00:Z","depth":0,"parameterNumber":3,"parameterNumberName":"V-component_of_WINDS"},"data":[0,0,0,0,0,0,0,0,0,0,0,0,0,0,0,0,0,0,0,0,0,0,0,0,0,0,0,0,0,0,0,0,0,0,0,0,0,0,0,0,0,0,0,0,0,0,0,0,0,0,0,0,0,0,0,0,0,0,-4.2487,-4.2487,0,-4.2531,-4.2532,-4.2532,-4.25,-4.2498,-4.2497,-4.2495,-4.2538,-4.2541,-4.2543,0,0,0,0,0,0,0,0,0,0,0,0,0,-4.237,-4.2373,-4.2487,-4.2488,-4.2488,-4.2531,-4.2532,-4.2532,-4.25,-4.2498,-4.2496,-4.2495,-4.2538,-4.2541,-4.2544,0,0,0,0,0,0,0,0,0,0,0,0,0,-4.2418,-4.2373,-4.2487,-4.2477,-4.2477,-4.2531,-4.2532,-4.2533,-4.25,-4.2498,-4.2496,-4.2494,-4.2537,-4.254,-4.2544,-4.261,0,0,-4.2555,-4.2557,0,0,0,0,0,0,0,0,-4.2416,-4.2423,-4.2478,-4.2478,-4.2477,-4.2508,-4.2506,-4.2558,-4.2501,-4.2491,-4.2495,-4.2493,-4.253,-4.2534,-4.2547,-4.2612,-4.2614,-4.2556,-4.2558,-4.2559,-4.2561,0,0,0,0,0,0,0,-4.2412,-4.2421,-4.2504,-4.2479,-4.2478,-4.2469,-4.2474,-4.2516,-4.2522,-4.2492,-4.249,-4.2495,-4.2529,-4.2543,-4.2548,-4.2614,-4.2556,-4.2559,-4.2561,-4.2563,-4.2732,-4.2734,0,0,0,0,0,0,-4.241,-4.2418,-4.2503,-4.2506,-4.2441,-4.2473,-4.2478,-4.25,-4.2521,-4.2523,-4.2497,-4.2494,-4.2538,-4.2543,-4.2549,-4.2625,-4.2559,-4.2563,-4.2565,-4.273,-4.2732,-4.2735,0,0,0,0,0,0,-4.2408,-4.2418,-4.2501,-4.2461,-4.2471,-4.2477,-4.2502,-4.2502,-4.2516,-4.2525,-4.2526,-4.2511,-4.2537,-4.2544,-4.2594,-4.2626,-4.2565,-4.2568,-4.2727,-4.2731,-4.2734,-4.2779,0,0,0,0,0,0,-4.2405,-4.2418,-4.2444,-4.2462,-4.2473,-4.2547,-4.2504,-4.2505,-4.2523,-4.2519,-4.2538,-4.2539,-4.2535,-4.2589,-4.2598,-4.263,-4.2571,-4.2724,-4.2729,-4.2733,-4.2775,-4.2784,-4.2792,0,0,0,0,0,-4.2401,-4.2455,-4.2445,-4.2456,-4.2506,-4.2549,-4.2555,-4.255,-4.2526,-4.2551,-4.2557,-4.2539,-4.2622,-4.2594,-4.2604,-4.2638,-4.2722,-4.2727,-4.2732,-4.2771,-4.2782,-4.2791,0,0,0,0,0,0,-4.244,-4.2458,-4.2447,-4.2509,-4.2528,-4.2543,-4.2576,-4.2562,-4.2588,-4.2583,-4.2575,-4.258,-4.2632,-4.264,-4.261,-4.2701,-4.2668,-4.2675,-4.2694,-4.2704,-4.2713,-4.2709,-4.2574,0,0,0,0,0,-4.2456,-4.2491,-4.2503,-4.2557,-4.2567,-4.257,-4.2588,-4.2582,-4.2601,-4.2609,-4.2618,-4.2636,-4.2666,-4.2686,-4.2714,-4.2776,-4.2779,-4.2804,-4.2813,-4.2819,-4.2825,-4.2856,-4.2867,-4.2752,-4.2752,-4.2752,0,0,-4.249,-4.2503,-4.2525,-4.2565,-4.2579,-4.2613,-4.2577,-4.2615,-4.2639,-4.2615,-4.2662,-4.267,-4.2689,-4.2745,-4.277,-4.2754,-4.2858,-4.2826,-4.2831,-4.2833,-4.2862,-4.2873,-4.2883,-4.2755,-4.2754,-4.2754,0,0,-4.2567,-4.2582,-4.2627,-4.2641,-4.2663,-4.2664,-4.2675,-4.2692,-4.2696,-4.2744,-4.2725,-4.2754,-4.2806,-4.282,-4.2834,-4.2914,-4.2898,-4.2924,-4.2966,-4.2996,-4.3005,-4.3013,-4.304,-4.305,-4.293,-4.293,-4.293,0,-4.2606,-4.2657,-4.2652,-4.2691,-4.2707,-4.2687,-4.2731,-4.2745,-4.2774,-4.2785,-4.2767,-4.283,-4.2842,-4.2899,-4.2919,-4.2932,-4.2942,-4.2921,-4.3005,-4.3013,-4.302,-4.3045,-4.3055,-4.2933,-4.2933,-4.2932,-4.2932,0,-4.2702,-4.2738,-4.2771,-4.28,-4.2821,-4.2862,-4.2861,-4.2882,-4.2875,-4.2877,-4.2925,-4.2938,-4.2967,-4.2981,-4.2974,-4.3037,-4.3025,-4.3006,-4.2972,-4.3034,-4.3057,-4.3067,-4.2937,-4.2936,-4.2935,-4.2934,0,0,-4.2807,-4.283,-4.2842,-4.2854,-4.2875,-4.2902,-4.2941,-4.297,-4.2987,-4.3008,-4.3039,-4.3083,-4.3064,-4.308,-4.3074,-4.3101,-4.316,-4.3078,-4.3078,-4.3091,-4.3227,-4.324,-4.3252,-4.315,-4.3152,-4.3154,-4.3225,0,-4.2883,-4.2952,-4.2947,-4.3012,-4.3043,-4.3023,-4.3057,-4.3072,-4.3076,-4.3102,-4.3105,-4.3135,-4.3109,-4.3118,-4.3144,-4.3148,-4.3187,-4.3143,-4.3177,-4.3178,-4.3171,-4.3264,-4.3279,-4.3346,-4.3234,-4.3236,-4.3237,0,-4.2983,-4.3006,-4.3073,-4.3087,-4.31,-4.3131,-4.3155,-4.3181,-4.3198,-4.3198,-4.3215,-4.3204,-4.3241,-4.3207,-4.3258,-4.3227,-4.3241,-4.3245,-4.3247,-4.3249,-4.321,-4.3266,-4.3367,-4.3376,-4.3252,-4.3251,-4.3249,0,-4.3049,-4.3097,-4.3143,-4.3154,-4.3172,-4.3193,-4.3202,-4.3216,-4.3233,-4.3254,-4.3264,-4.329,-4.3303,-4.3323,-4.3318,-4.3294,-4.3369,-4.3335,-4.3368,-4.3368,-4.3384,-4.3382,-4.3486,-4.3396,-4.3396,-4.3396,-4.3395,0,-4.3134,-4.3175,-4.3172,-4.3201,-4.3245,-4.3239,-4.3283,-4.3289,-4.3301,-4.3329,-4.3313,-4.3339,-4.3333,-4.3358,-4.3355,-4.3395,-4.3402,-4.3402,-4.34,-4.3402,-4.3402,-4.341,-4.3404,-4.3398,-4.3398,-4.3397,-4.3397,0,-4.3215,-4.3215,-4.3263,-4.3276,-4.328,-4.3312,-4.3323,-4.3348,-4.3349,-4.3384,-4.3392,-4.3394,-4.3422,-4.342,-4.3453,-4.345,-4.35,-4.3494,-4.3494,-4.3492,-4.3525,-4.3521,-4.3635,-4.3649,-4.3552,-4.3553,-4.3554,0,-4.3269,-4.33,-4.3315,-4.3333,-4.3342,-4.3371,-4.3387,-4.3381,-4.3399,-4.3419,-4.3441,-4.3469,-4.349,-4.3536,-4.354,-4.3564,-4.3557,-4.3595,-4.356,-4.3561,-4.3555,-4.3552,-4.3554,-4.3602,-4.3603,-4.3604,-4.3604,0,-4.3363,-4.336,-4.3385,-4.341,-4.343,-4.3449,-4.3466,-4.3481,-4.3476,-4.3497,-4.3525,-4.3542,-4.3574,-4.3601,-4.3623,-4.363,-4.3616,-4.3616,-4.3624,-4.3625,-4.3623,-4.3622,-4.3511,-4.3613,-4.3612,-4.3611,-4.3611,-4.361,-4.343,-4.3456,-4.347,-4.3497,-4.3509,-4.3525,-4.3549,-4.3553,-4.3577,-4.3603,-4.3598,-4.363,-4.3643,-4.3672,-4.3681,-4.3705,-4.3691,-4.3704,-4.3707,-4.371,-4.3712,-4.3621,-4.3709,-4.3709,-4.3709,-4.3709,-4.3709,0,-4.3521,-4.3529,-4.3554,-4.3578,-4.3599,-4.3584,-4.3602,-4.362,-4.3648,-4.3662,-4.3683,-4.3715,-4.374,-4.3745,-4.3769,-4.3787,-4.3781,-4.3793,-4.3791,-4.3792,-4.3725,-4.3714,-4.3797,-4.3797,-4.3797,-4.3797,-4.3797,-4.3797,-4.3571,-4.3612,-4.3612,-4.3658,-4.3666,-4.3697,-4.3708,-4.3721,-4.3732,-4.3769,-4.3789,-4.3793,-4.3802,-4.3826,-4.3848,-4.3848,-4.3857,-4.3871,-4.3869,-4.3806,-4.3797,-4.3788,-4.3778,-4.3874,-4.3874,-4.3934,-4.3934,-4.3935]}]]